499  
ASUS41 KOKX 302105  
RWROKX  
 
REGIONAL WEATHER ROUNDUP  
NATIONAL WEATHER SERVICE NEW YORK NY  
400 PM EST FRI JAN 30 2015  
 
NOTE: "FAIR" INDICATES FEW OR NO CLOUDS BELOW 12,000 FEET WITH NO  
SIGNIFICANT WEATHER AND/OR S TO VISIBILITY
.  
 
NYZ071-072-176-178-NJZ106-104-302200-  
NEW YORK CITY METRO AREA  
 
 
CITY SKY/WX TMP DP RH WIND PRES REMARKS
 
CENTRAL PARK MOSUNNY 36 15 42 NW16G33 29.87R WCI 26  
LAGUARDIA APRT MOSUNNY 36 19 50 NW22G30 29.84R WCI 25  
KENNEDY INTL MOSUNNY 37 17 44 NW23G33 29.85R WCI 26  
NEWARK/LIBERTY MOSUNNY 36 17 46 NW17G31 29.86R WCI 26  
BRNX BOT. GARD N/A N/A N/A N/A W13 29.87R  
TETERBORO MOSUNNY 36 16 44 NW20G31 29.85R WCI 25  

 
 
NYZ177-179-078>081-302200-  
LONG ISLAND NEW YORK  
 
CITY SKY/WX TMP DP RH WIND PRES REMARKS
 
FARMINGDALE PTSUNNY 37 18 46 NW17G29 29.82R WCI 27  
ISLIP CLOUDY 35 23 61 NW8 29.79R WCI 29  
SHIRLEY CLOUDY 35 24 64 N15G23 29.80R WCI 25  
WESTHAMPTON PTSUNNY 34 23 64 NW15G29 29.79S WCI 24  
MONTAUK POINT N/A 35 26 69 NW14G22 29.76R WCI 26  

 
 
NYZ052-065-067-302200-  
HUDSON VALLEY  
 
CITY SKY/WX TMP DP RH WIND PRES REMARKS
 
WHITE PLAINS MOSUNNY 34 16 47 NW20G35 29.80R WCI 23  
NEWBURGH NOT AVBL  
MONTGOMERY PTSUNNY 32 14 47 NW15G29 29.86R WCI 22  
POUGHKEEPSIE CLOUDY 34 15 46 NW13G25 29.85R WCI 25  
ALBANY MOCLDY 28 13 53 W22G36 29.89R WCI 14  

 
 
NJZ001-105-106-008-010-013-015-019>022-104-302200-  
NEW JERSEY  
 
CITY SKY/WX TMP DP RH WIND PRES REMARKS
 
NEWARK/LIBERTY MOSUNNY 36 17 46 NW17G31 29.86R WCI 26  
TETERBORO MOSUNNY 36 16 44 NW20G31 29.85R WCI 25  
CALDWELL MOSUNNY 34 14 43 NW15G26 29.87R WCI 24  
MORRISTOWN MOSUNNY 36 16 44 N16G26 29.88R WCI 26  
SOMERVILLE PTSUNNY 36 18 48 NW29G38 29.88R WCI 23  
SUSSEX PTSUNNY 31 15 52 N9G18 29.89R WCI 23  
ANDOVER N/A 31 16 54 N14G29 29.89R WCI 21  
TRENTON MOSUNNY 36 17 46 NW16G28 29.90R WCI 26  
MILLVILLE MOSUNNY 35 25 66 NW18G32 29.95R WCI 24  
ATLANTIC CITY CLOUDY 39 17 41 NW24G33 29.90R WCI 28  
WRIGHTSTOWN NOT AVBL  
TOMS RIVER CLOUDY 36 18 48 NW21G32 29.89R WCI 24  
BELMAR CLOUDY 36 19 51 NW20G30 29.86R WCI 25  

 
 
PAZ047>061-062-071-302200-  
EASTERN PENNSYLVANIA  
 
CITY SKY/WX TMP DP RH WIND PRES REMARKS
 
PHILADELPHIA LGT SNOW 33 28 81 W17G29 29.97R WCI 22  
ALLENTOWN CLOUDY 33 20 58 NW12G21 29.94R WCI 24  
SCRANTON MIX PCPN 27 13 55 NW18G28 29.96R WCI 14  

 
 
CTZ002-004>006-009-010-012-RIZ004-006-007-MAZ004-011-015-302200-  
SOUTHERN NEW ENGLAND  
IN CT  
 
CITY SKY/WX TMP DP RH WIND PRES REMARKS
 
BRADLEY INTL CLOUDY 31 19 61 NW22G29 29.77R WCI 18  
HARTFORD MOCLDY 32 19 58 NW12G24 29.80R WCI 23  
DANBURY PTSUNNY 33 18 53 NW13G20 29.81R WCI 24  
WTRBRY/OXFORD MOCLDY 30 16 55 N12G23 29.78R WCI 21  
BRIDGEPORT PTSUNNY 35 24 64 NW18 29.79S WCI 24  
MERIDEN MOCLDY 32 19 58 NW16G24 29.80R WCI 21  
NEW HAVEN MOCLDY 35 22 58 N15G25 29.79R WCI 25  
CHESTER CLOUDY 32 23 69 NW10G17 29.77R WCI 24  
GROTON CLOUDY 33 25 72 NW12 29.75R WCI 24  
WILLIMANTIC CLOUDY 33 23 66 NW9G20 29.75S WCI 25  
 
IN RI  
 
CITY SKY/WX TMP DP RH WIND PRES REMARKS
 
PROVIDENCE FLURRIES 34 26 72 NW10 29.72R WCI 26  
BLOCK ISLAND CLOUDY 34 25 69 NW12G17 29.72R WCI 25  
WESTERLY CLOUDY 34 25 69 NW8G20 29.74R WCI 27  
 
IN MA  
 
CITY SKY/WX TMP DP RH WIND PRES REMARKS
 
BOSTON CLOUDY 33 27 78 NW10 29.71F WCI 25  
WORCESTER LGT SNOW 29 24 82 NW10 29.69R WCI 20  
WESTFIELD CLOUDY 31 19 61 NW15G28 29.77R WCI 20  
PROVINCETOWN CLOUDY 34 30 86 NW13 29.69S WCI 25  
NANTUCKET CLOUDY 35 32 88 NW10 29.67S WCI 27  

 
 
ANZ330-335-338-340-345-350-353-355-302200-  
COASTAL MARINE OBSERVATIONS  
 
 
STATION/POSITION TIME SKY/WX TEMP WIND PRES VSBY WAVE
 
AIR SEA DIR/SP/G HT/PER  
(UTC) (F) (DEG/KT/KT) (MB) (MI) (FT/S)  
NY HARB ENTRANCE 2100 38 40 310/ 25/ 29 1009.4 4/ 4  
4S FIRE IS 2100 37 N/A 3/ 6  
20S FIRE ISLAND 2000 41 1008.8 5/ 5  
23SW MTP 2100 N/A 5/ 6  
HUDSON CANYON NOT AVBL  
EXECUTION ROCKS 2100 37 33 300/ 23/ 35 N/A  
WESTERN LI SOUND 2100 36 300/ 21/ 27 N/A 2/ 3  
CENTRAL LI SOUND 2000 34 35 320/ 17/ 21 N/A 2/ 3  
EASTERN LI SOUND NOT AVBL  
ROBBINS REEF 2100 36 330/ 20/ 27 1009.6  

 
 
>>>>>>>>>>>>>>>>>>>>>>>>>>>> KEY <<<<<<<<<<<<<<<<<<<<<<<<<<<  
> <  
> SKY/WX - SKY CONDITION/PRESENT WEATHER <  
> TMP - TEMPERATURE IN FAHRENHEIT <  
> DP - DEWPOINT IN FAHRENHEIT <  
> RH - RELATIVE HUMIDITY IN PERCENT <  
> WIND - DIRECTION AND SPEED IN MPH <  
> PRES - MEAN SEA LEVEL PRESSURE IN INCHES OF HG <  
> WCI - WIND CHILL INDEX <  
> VSB - VISIBILITY IN MILES <  
> HX - HEAT INDEX <  
> TC - TEMPERATURE IN CELSIUS <  
> VRB - VARIABLE WIND DIRECTION <  
> <  
>>>>>>>>>>>>>>>>>>>>>>>>>>>> KEY <<<<<<<<<<<<<<<<<<<<<<<<<<<  
 
CLICK HERE TO GO TO PREVIOUS BULLETINS.

The Nexlab NY Page
The Nexlab NJ Page
The Nexlab CT Page Main Text Page